Location: Mountain View
(37.3861°N, 122.0839°W)
Time: 15:40:58
(UTC-07:00)

Envisat - Pass Details

Date: 16 May 2026
Orbit: 761 x 763 km, 98.4° (Epoch: 7 June)

Event Time Altitude Azimuth Distance (km) Brightness Sun altitude
Rises 04:37:18 0° 360° (N) 3,229 6.8 -14.5°
Reaches altitude 10° 04:39:53 10° 349° (NNW) 2,299 5.8 -14.1°
Maximum altitude 04:44:06 27° 292° (WNW) 1,420 4.1 -13.5°
Enters shadow 04:46:46 18° 248° (WSW) 1,817 4.3 -13.0°
